Regional Weather Roundup
Issued by NWS

Home | Current Version | Previous Version | Graphics & Text | Print | Product List | Glossary On
Versions: 1 2 3 4 5 6 7 8 9 10 11 12 13 14 15 16 17 18 19 20 21 22 23 24 25 26 27 28 29 30 31 32 33 34 35 36 37 38 39 40 41 42 43 44 45 46 47 48 49 50
780
ASUS43 KLSX 230107
RWRMO

WEATHER SUMMARY FOR MISSOURI
NATIONAL WEATHER SERVICE SPRINGFIELD MO
700 PM CST THU FEB 22 2018

NOTE: "FAIR" INDICATES FEW OR NO CLOUDS BELOW 12,000 FEET WITH NO
       SIGNIFICANT WEATHER AND/OR OBSTRUCTIONS TO VISIBILITY.
       CURRENT SKY AND/OR WEATHER CONDITIONS ARE NOT AVAILABLE FOR
       CHILLICOTHE AND FARMINGTON.

MOZ001>031-035>038-043-044-053-054-230200-
...NORTHERN AND WESTERN MISSOURI...

CITY           SKY/WX    TMP DP  RH WIND       PRES   REMARKS
KANSAS CTY INT FRZ RAIN  33  33 100 S5        30.18S VSB 1   WCI  29
KANSAS C DTWN  LGT RAIN  35  32  88 E5        30.18S
LEE`S SUMMIT   CLOUDY    33  33 100 E6        30.17F FOG     WCI  28
ST JOSEPH      CLOUDY    32  32 100 SE6       30.19F FOG     WCI  26
CHILLICOTHE      N/A     34  33  96 E7        30.21S WCI  28
KIRKSVILLE     FOG       33  33 100 E10       30.23F VSB 1/4 WCI  25

$$
MOZ066>068-077>081-088>096-101>105-230200-
...SOUTHWEST MISSOURI...

CITY           SKY/WX    TMP DP  RH WIND       PRES   REMARKS
SPRINGFIELD    LGT RAIN  42  41  96 SE9       30.17S
JOPLIN         CLOUDY    42  42 100 S3        30.18S
BRANSON        LGT RAIN  39  39 100 NW8       30.25R FOG

$$
MOZ032>034-039>042-045>050-055>058-069>072-230200-
...CENTRAL MISSOURI...

CITY           SKY/WX    TMP DP  RH WIND       PRES   REMARKS
COLUMBIA       FOG       37  32  82 SE12      30.22F VSB 1   WCI  29
JEFFERSON CITY CLOUDY    38  37  97 E9        30.25F FOG
ROLLA          LGT RAIN  39  39 100 E10       30.23F FOG
SEDALIA        LGT RAIN  37  37 100 E12       30.21F FOG     WCI  29
WHITEMAN AFB   LGT RAIN  36  35  95 SE7       30.15F
WARRENSBURG    CLOUDY    34  34 100 E6        30.19F WCI  29
OSAGE BEACH    LGT RAIN  38  38 100 E5        30.24R FOG

$$
MOZ051-052-059>065-230200-
...EAST CENTRAL MISSOURI...

CITY           SKY/WX    TMP DP  RH WIND       PRES   REMARKS
ST LOUIS INTL  CLOUDY    43  43 100 S3        30.31S FOG
SPIRIT OF STL  CLOUDY    42  41  96 E3        30.29F FOG
ST CHARLES     FOG       42  42 100 SE7       30.30F VSB 3/4

$$
MOZ072>076-082>087-097>100-106>115-230200-
...SOUTH CENTRAL AND SOUTHEAST MISSOURI...

CITY           SKY/WX    TMP DP  RH WIND       PRES   REMARKS
CAPE GIRARDEAU CLOUDY    48  44  86 CALM      30.32R
FARMINGTON     RAIN      43  42  97 CALM      30.31R
POPLAR BLUFF   LGT RAIN  45  43  93 CALM      30.31R
WEST PLAINS    CLOUDY    41  40  96 E8        30.23S

$$



USA.gov is the U.S. government's official web portal to all federal, state and local government web resources and services.